| time (UTC) | temp F | wind direction | speed MPH | gust MPH | rain 1hr in | rain 24hr in | rain mn in | humidity % | barometer mb |
| 20260504172932 | 55 | 230 | 9.0 | 13.0 | 0.00 | 0.06 | 0.06 | 82 | 1016.3 |
| 20260504172430 | 55 | 235 | 7.0 | 12.0 | 0.00 | 0.06 | 0.06 | 81 | 1016.3 |
| 20260504171930 | 56 | 232 | 7.0 | 12.0 | 0.00 | 0.06 | 0.06 | 82 | 1016.3 |
| 20260504171430 | 56 | 225 | 7.0 | 10.0 | 0.00 | 0.06 | 0.06 | 84 | 1016.3 |
| 20260504170929 | 55 | 228 | 7.0 | 12.0 | 0.00 | 0.06 | 0.06 | 85 | 1016.3 |
| 20260504170431 | 55 | 226 | 6.0 | 9.0 | 0.00 | 0.06 | 0.06 | 83 | 1016.3 |
| 20260504150931 | 53 | 246 | 2.0 | 5.0 | 0.04 | 0.06 | 0.06 | 95 | 1016.8 |
| 20260504140930 | 61 | 220 | 6.0 | 9.0 | 0.00 | 0.02 | 0.02 | 75 | 1016.1 |
| 20260504140430 | 59 | 202 | 5.0 | 9.0 | 0.00 | 0.02 | 0.02 | 75 | 1016.1 |
| 20260504130430 | 54 | 228 | 5.0 | 7.0 | 0.01 | 0.02 | 0.02 | 88 | 1016.8 |
| 20260504100430 | 59 | 230 | 5.0 | 9.0 | 0.00 | 0.01 | 0.01 | 82 | 1016.5 |
| 20260504081931 | 53 | 328 | 0.0 | 3.0 | 0.00 | 0.01 | 0.01 | 94 | 1016.4 |
| 20260504081431 | 53 | 328 | 1.0 | 3.0 | 0.00 | 0.01 | 0.01 | 95 | 1016.5 |
| 20260504080930 | 51 | 328 | 0.0 | 2.0 | 0.00 | 0.01 | 0.01 | 95 | 1016.5 |
| 20260504080430 | 50 | 328 | 1.0 | 2.0 | 0.00 | 0.01 | 0.01 | 96 | 1016.5 |
| 20260504050430 | 43 | 328 | 0.0 | 0.0 | 0.00 | 0.00 | 0.00 | 99 | 1015.6 |
| 20260504045932 | 43 | 328 | 0.0 | 0.0 | 0.00 | 0.00 | 0.00 | 99 | 1015.6 |
| 20260504044930 | 43 | 328 | 0.0 | 0.0 | 0.00 | 0.00 | 0.00 | 99 | 1015.5 |
| 20260504044430 | 44 | 328 | 1.0 | 3.0 | 0.00 | 0.00 | 0.00 | 99 | 1015.6 |
| 20260504043931 | 44 | 328 | 2.0 | 3.0 | 0.00 | 0.00 | 0.00 | 99 | 1015.6 |
| 20260504043430 | 44 | 328 | 3.0 | 3.0 | 0.00 | 0.00 | 0.00 | 99 | 1015.6 |
| 20260504042931 | 44 | 328 | 0.0 | 0.0 | 0.00 | 0.00 | 0.00 | 99 | 1015.6 |
| 20260504042430 | 44 | 328 | 1.0 | 6.0 | 0.00 | 0.00 | 0.00 | 98 | 1015.6 |
| 20260504041931 | 44 | 317 | 3.0 | 6.0 | 0.00 | 0.00 | 0.00 | 98 | 1015.6 |
| 20260504041429 | 44 | 242 | 3.0 | 5.0 | 0.00 | 0.00 | 0.00 | 98 | 1015.4 |
| 20260504040930 | 44 | 242 | 0.0 | 0.0 | 0.00 | 0.00 | 0.00 | 98 | 1015.4 |
| 20260504040430 | 44 | 242 | 0.0 | 0.0 | 0.00 | 0.00 | 0.00 | 99 | 1015.4 |
| 20260504035929 | 44 | 242 | 0.0 | 0.0 | 0.00 | 0.00 | 0.00 | 99 | 1015.4 |
| 20260504035430 | 44 | 242 | 1.0 | 3.0 | 0.00 | 0.00 | 0.00 | 98 | 1015.5 |
| 20260504034931 | 44 | 242 | 1.0 | 3.0 | 0.00 | 0.00 | 0.00 | 98 | 1015.5 |
| 20260504034431 | 44 | 242 | 0.0 | 3.0 | 0.00 | 0.00 | 0.00 | 98 | 1015.5 |
| 20260504033930 | 44 | 242 | 2.0 | 5.0 | 0.00 | 0.00 | 0.00 | 98 | 1015.5 |
| 20260504033428 | 44 | 242 | 2.0 | 3.0 | 0.00 | 0.00 | 0.00 | 98 | 1015.5 |
| 20260504032930 | 44 | 242 | 1.0 | 3.0 | 0.00 | 0.00 | 0.00 | 98 | 1015.5 |
| 20260504032430 | 44 | 242 | 0.0 | 0.0 | 0.00 | 0.00 | 0.00 | 98 | 1015.6 |
| 20260504031930 | 44 | 242 | 0.0 | 0.0 | 0.00 | 0.00 | 0.00 | 98 | 1015.6 |
| 20260504031430 | 44 | 242 | 0.0 | 1.0 | 0.00 | 0.00 | 0.00 | 98 | 1015.6 |
| 20260504030930 | 44 | 242 | 1.0 | 5.0 | 0.00 | 0.00 | 0.00 | 98 | 1015.6 |
| 20260504030431 | 44 | 242 | 5.0 | 5.0 | 0.00 | 0.00 | 0.00 | 98 | 1015.5 |
| 20260504025931 | 44 | 242 | 1.0 | 3.0 | 0.00 | 0.00 | 0.00 | 97 | 1015.6 |
| 20260504025431 | 44 | 242 | 0.0 | 0.0 | 0.00 | 0.00 | 0.00 | 97 | 1015.5 |
| 20260504024931 | 44 | 242 | 0.0 | 0.0 | 0.00 | 0.00 | 0.00 | 97 | 1015.6 |
| 20260504023931 | 44 | 242 | 0.0 | 0.0 | 0.00 | 0.00 | 0.00 | 97 | 1015.5 |
| 20260504022931 | 44 | 242 | 0.0 | 0.0 | 0.00 | 0.00 | 0.00 | 97 | 1015.6 |
| 20260504022430 | 44 | 242 | 0.0 | 0.0 | 0.00 | 0.00 | 0.00 | 97 | 1015.5 |
| 20260504021930 | 45 | 242 | 0.0 | 2.0 | 0.00 | 0.00 | 0.00 | 97 | 1015.5 |
| 20260504021430 | 45 | 242 | 0.0 | 0.0 | 0.00 | 0.00 | 0.00 | 97 | 1015.4 |
| 20260504020929 | 45 | 242 | 1.0 | 3.0 | 0.00 | 0.00 | 0.00 | 97 | 1015.4 |
| 20260504020431 | 45 | 242 | 0.0 | 2.0 | 0.00 | 0.00 | 0.00 | 97 | 1015.4 |
| 20260504015931 | 45 | 242 | 0.0 | 0.0 | 0.00 | 0.00 | 0.00 | 97 | 1015.4 |
| 20260504015430 | 45 | 242 | 0.0 | 0.0 | 0.00 | 0.00 | 0.00 | 96 | 1015.4 |
| 20260504014931 | 45 | 242 | 0.0 | 0.0 | 0.00 | 0.00 | 0.00 | 96 | 1015.4 |
| 20260504014428 | 45 | 242 | 0.0 | 0.0 | 0.00 | 0.00 | 0.00 | 96 | 1015.3 |
| 20260504013930 | 45 | 242 | 0.0 | 0.0 | 0.00 | 0.00 | 0.00 | 96 | 1015.4 |
| 20260504013430 | 45 | 242 | 0.0 | 0.0 | 0.00 | 0.00 | 0.00 | 96 | 1015.4 |
| 20260504012931 | 45 | 242 | 0.0 | 0.0 | 0.00 | 0.00 | 0.00 | 96 | 1015.5 |
| 20260504012430 | 45 | 242 | 0.0 | 0.0 | 0.00 | 0.00 | 0.00 | 96 | 1015.5 |
| 20260504011931 | 46 | 242 | 1.0 | 2.0 | 0.00 | 0.00 | 0.00 | 96 | 1015.5 |
| 20260504011431 | 46 | 242 | 1.0 | 3.0 | 0.00 | 0.00 | 0.00 | 96 | 1015.5 |
| 20260504010431 | 46 | 242 | 3.0 | 3.0 | 0.00 | 0.00 | 0.00 | 95 | 1015.5 |
| 20260504005930 | 46 | 242 | 2.0 | 2.0 | 0.00 | 0.00 | 0.00 | 95 | 1015.5 |
| 20260504003930 | 47 | 242 | 0.0 | 0.0 | 0.00 | 0.00 | 0.00 | 95 | 1015.5 |
| 20260504003431 | 47 | 242 | 0.0 | 0.0 | 0.00 | 0.00 | 0.00 | 95 | 1015.5 |
| 20260504002931 | 47 | 242 | 0.0 | 0.0 | 0.00 | 0.00 | 0.00 | 95 | 1015.6 |
| 20260504002431 | 47 | 242 | 0.0 | 1.0 | 0.00 | 0.00 | 0.00 | 94 | 1015.6 |
| 20260504001929 | 47 | 242 | 0.0 | 2.0 | 0.00 | 0.00 | 0.00 | 94 | 1015.6 |
| 20260504000431 | 54 | 242 | 0.0 | 0.0 | 0.00 | 0.00 | 0.00 | 96 | 1020.0 |
| 20260503235932 | 54 | 242 | 0.0 | 0.0 | 0.00 | 0.00 | 0.00 | 96 | 1020.0 |
| 20260503235431 | 54 | 242 | 0.0 | 0.0 | 0.00 | 0.00 | 0.00 | 96 | 1020.0 |
| 20260503234928 | 54 | 242 | 0.0 | 0.0 | 0.00 | 0.00 | 0.00 | 96 | 1020.0 |
| 20260503234431 | 54 | 242 | 0.0 | 0.0 | 0.00 | 0.00 | 0.00 | 96 | 1020.0 |
| 20260503233928 | 54 | 242 | 0.0 | 0.0 | 0.00 | 0.00 | 0.00 | 96 | 1020.0 |
| 20260503233430 | 54 | 242 | 0.0 | 0.0 | 0.00 | 0.00 | 0.00 | 96 | 1020.0 |
| 20260503232932 | 54 | 242 | 0.0 | 0.0 | 0.00 | 0.00 | 0.00 | 96 | 1020.0 |
| 20260503232431 | 54 | 242 | 0.0 | 0.0 | 0.00 | 0.00 | 0.00 | 96 | 1020.0 |
| 20260503231930 | 54 | 242 | 0.0 | 0.0 | 0.00 | 0.00 | 0.00 | 96 | 1020.0 |
| 20260503231430 | 54 | 242 | 0.0 | 0.0 | 0.00 | 0.00 | 0.00 | 96 | 1020.0 |
| 20260503230931 | 54 | 242 | 0.0 | 0.0 | 0.00 | 0.00 | 0.00 | 96 | 1020.0 |
| 20260503230430 | 54 | 242 | 0.0 | 0.0 | 0.00 | 0.00 | 0.00 | 96 | 1020.0 |
| 20260503225431 | 54 | 242 | 0.0 | 0.0 | 0.00 | 0.00 | 0.00 | 96 | 1020.0 |
| 20260503224930 | 54 | 242 | 0.0 | 0.0 | 0.00 | 0.00 | 0.00 | 96 | 1020.0 |
| 20260503224429 | 54 | 242 | 0.0 | 0.0 | 0.00 | 0.00 | 0.00 | 96 | 1020.0 |
| 20260503223931 | 54 | 242 | 0.0 | 0.0 | 0.00 | 0.00 | 0.00 | 96 | 1020.0 |
| 20260503223428 | 54 | 242 | 0.0 | 0.0 | 0.00 | 0.00 | 0.00 | 96 | 1020.0 |
| 20260503222431 | 54 | 242 | 0.0 | 0.0 | 0.00 | 0.00 | 0.00 | 96 | 1020.0 |
| 20260503221931 | 54 | 242 | 0.0 | 0.0 | 0.00 | 0.00 | 0.00 | 96 | 1020.0 |
| 20260503221428 | 54 | 242 | 0.0 | 0.0 | 0.00 | 0.00 | 0.00 | 96 | 1020.0 |
| 20260503220931 | 54 | 242 | 0.0 | 0.0 | 0.00 | 0.00 | 0.00 | 96 | 1020.0 |
| 20260503220430 | 54 | 242 | 0.0 | 0.0 | 0.00 | 0.00 | 0.00 | 96 | 1020.0 |
| 20260503215929 | 54 | 242 | 0.0 | 0.0 | 0.00 | 0.00 | 0.00 | 96 | 1020.0 |
| 20260503215431 | 54 | 242 | 0.0 | 0.0 | 0.00 | 0.00 | 0.00 | 96 | 1020.0 |
| 20260503214931 | 54 | 242 | 0.0 | 0.0 | 0.00 | 0.00 | 0.00 | 96 | 1020.0 |
| 20260503214430 | 54 | 242 | 0.0 | 0.0 | 0.00 | 0.00 | 0.00 | 96 | 1020.0 |
| 20260503213929 | 54 | 242 | 0.0 | 0.0 | 0.00 | 0.00 | 0.00 | 96 | 1020.0 |
| 20260503213428 | 54 | 242 | 0.0 | 0.0 | 0.00 | 0.00 | 0.00 | 96 | 1020.0 |
| 20260503212930 | 54 | 242 | 0.0 | 0.0 | 0.00 | 0.00 | 0.00 | 96 | 1020.0 |
| 20260503211431 | 54 | 242 | 0.0 | 0.0 | 0.00 | 0.00 | 0.00 | 96 | 1020.0 |
| 20260503210931 | 54 | 242 | 0.0 | 0.0 | 0.00 | 0.00 | 0.00 | 96 | 1020.0 |
| 20260503210431 | 54 | 242 | 0.0 | 0.0 | 0.00 | 0.00 | 0.00 | 96 | 1020.0 |
| 20260503205931 | 54 | 242 | 0.0 | 0.0 | 0.00 | 0.00 | 0.00 | 96 | 1020.0 |
| 20260503205430 | 54 | 242 | 0.0 | 0.0 | 0.00 | 0.00 | 0.00 | 96 | 1020.0 |
| 20260503204931 | 54 | 242 | 0.0 | 0.0 | 0.00 | 0.00 | 0.00 | 96 | 1020.0 |
| 20260503204431 | 54 | 242 | 0.0 | 0.0 | 0.00 | 0.00 | 0.00 | 96 | 1020.0 |
| 20260503203931 | 54 | 242 | 0.0 | 0.0 | 0.00 | 0.00 | 0.00 | 96 | 1020.0 |
| 20260503203429 | 54 | 242 | 0.0 | 0.0 | 0.00 | 0.00 | 0.00 | 96 | 1020.0 |
| 20260503202431 | 54 | 242 | 0.0 | 0.0 | 0.00 | 0.00 | 0.00 | 96 | 1020.0 |
| 20260503201930 | 54 | 242 | 0.0 | 0.0 | 0.00 | 0.00 | 0.00 | 96 | 1020.0 |
| 20260503201431 | 54 | 242 | 0.0 | 0.0 | 0.00 | 0.00 | 0.00 | 96 | 1020.0 |
| 20260503200928 | 54 | 242 | 0.0 | 0.0 | 0.00 | 0.00 | 0.00 | 96 | 1020.0 |
| 20260503200430 | 54 | 242 | 0.0 | 0.0 | 0.00 | 0.00 | 0.00 | 96 | 1020.0 |
| 20260503194431 | 54 | 242 | 0.0 | 0.0 | 0.00 | 0.00 | 0.00 | 96 | 1020.0 |
| 20260503193931 | 54 | 242 | 0.0 | 0.0 | 0.00 | 0.00 | 0.00 | 96 | 1020.0 |
| 20260503193431 | 54 | 242 | 0.0 | 0.0 | 0.00 | 0.00 | 0.00 | 96 | 1020.0 |
| 20260503192931 | 54 | 242 | 0.0 | 0.0 | 0.00 | 0.00 | 0.00 | 96 | 1020.0 |
| 20260503191931 | 54 | 242 | 0.0 | 0.0 | 0.00 | 0.00 | 0.00 | 96 | 1020.0 |
| 20260503191431 | 54 | 242 | 0.0 | 0.0 | 0.00 | 0.00 | 0.00 | 96 | 1020.0 |
| 20260503190931 | 54 | 242 | 0.0 | 0.0 | 0.00 | 0.00 | 0.00 | 96 | 1020.0 |
| 20260503185929 | 54 | 242 | 0.0 | 0.0 | 0.00 | 0.00 | 0.00 | 96 | 1020.0 |
| 20260503185431 | 54 | 242 | 0.0 | 0.0 | 0.00 | 0.00 | 0.00 | 96 | 1020.0 |
| 20260503184431 | 54 | 242 | 0.0 | 0.0 | 0.00 | 0.00 | 0.00 | 96 | 1020.0 |
| 20260503183931 | 54 | 242 | 0.0 | 0.0 | 0.00 | 0.00 | 0.00 | 96 | 1020.0 |
| 20260503183430 | 54 | 242 | 0.0 | 0.0 | 0.00 | 0.00 | 0.00 | 96 | 1020.0 |
| 20260503182932 | 54 | 242 | 0.0 | 0.0 | 0.00 | 0.00 | 0.00 | 96 | 1020.0 |
| 20260503181931 | 54 | 242 | 0.0 | 0.0 | 0.00 | 0.00 | 0.00 | 96 | 1020.0 |
| 20260503181430 | 54 | 242 | 0.0 | 0.0 | 0.00 | 0.00 | 0.00 | 96 | 1020.0 |
| 20260503180931 | 54 | 242 | 0.0 | 0.0 | 0.00 | 0.00 | 0.00 | 96 | 1020.0 |
| 20260503175932 | 54 | 242 | 0.0 | 0.0 | 0.00 | 0.00 | 0.00 | 96 | 1020.0 |
| 20260503175428 | 54 | 242 | 0.0 | 0.0 | 0.00 | 0.00 | 0.00 | 96 | 1020.0 |
| 20260503174930 | 54 | 242 | 0.0 | 0.0 | 0.00 | 0.00 | 0.00 | 96 | 1020.0 |
| 20260503174430 | 54 | 242 | 0.0 | 0.0 | 0.00 | 0.00 | 0.00 | 96 | 1020.0 |
| 20260503173931 | 54 | 242 | 0.0 | 0.0 | 0.00 | 0.00 | 0.00 | 96 | 1020.0 |
| 20260503173431 | 54 | 242 | 0.0 | 0.0 | 0.00 | 0.00 | 0.00 | 96 | 1020.0 |